Waco, TX

6:09 PM CDT on September 24, 2017 (GMT -0500)
Waco Regional

Weather History for KACT - August, 2013

Change the Weather History Date:

Monday, August 19, 2013

  Actual Average Record
Temperature  
Mean Temperature 80 °F 85 °F  
Max Temperature 95 °F 97 °F 107 °F (2011)
Min Temperature 64 °F 74 °F 64 °F (1940)
Degree Days  
Heating Degree Days 0 0  
Month to date heating degree days 0 0  
Since 1 June heating degree days 0 0  
Since 1 July heating degree days 0 0  
Cooling Degree Days 15 20  
Month to date cooling degree days 395 397  
Year to date cooling degree days 1962 1963  
Since 1 June cooling degree days 1545 1511  
Growing Degree Days 30 (Base 50)    
Moisture  
Dew Point 59 °F    
Average Humidity 54    
Maximum Humidity 78    
Minimum Humidity 30    
Precipitation  
Precipitation 0.00 in 0.06 in 3.76 in (2008)
Month to date precipitation 0.02 1.14  
Year to date precipitation 21.23 21.25  
Sea Level Pressure  
Sea Level Pressure 29.98 in    
Wind  
Wind Speed 4 mph (SSE)    
Max Wind Speed 13 mph    
Max Gust Speed 25 mph    
Visibility 10 miles    
Events      
T = Trace of Precipitation, MM = Missing Value Source: NWS Daily Summary

Daily Weather History Graph

Daily Weather History Graph

Search for Another Location

Airport or City:

Trip Planner

Search our weather history database for the weather conditions in past years. The results will help you decide how hot, cold, wet, or windy it might be!

Date:

Astronomy

Aug. 19, 2013 Rise Set
Actual Time 6:56 AM CDT 8:07 PM CDT
Civil Twilight 6:31 AM CDT 8:32 PM CDT
Nautical Twilight 6:01 AM CDT 9:03 PM CDT
Astronomical Twilight 5:29 AM CDT 9:34 PM CDT
Moon 6:59 PM CDT (8/19) 5:19 AM CDT (8/19)
Length of Visible Light 14h 01m
Length of Day
13h 10m
Waxing Gibbous, 97% of the Moon is Illuminated
Aug 19
Waxing Gibbous
Aug 20
Full
Aug 28
Last Quarter
Sep 5
New
Sep 12
First Quarter

Hourly Weather History & Observations

Time (CDT) Temp. Heat Index Dew Point Humidity Pressure Visibility Wind Dir Wind Speed Gust Speed Precip Events Conditions
12:51 AM 71.1 °F - 57.9 °F 63% 29.99 in 10.0 mi Calm Calm - N/A   Clear
1:51 AM 69.1 °F - 59.0 °F 70% 29.99 in 10.0 mi North 3.5 mph - N/A   Clear
2:51 AM 69.1 °F - 57.0 °F 65% 29.98 in 10.0 mi North 3.5 mph - N/A   Clear
3:51 AM 66.9 °F - 57.9 °F 73% 29.99 in 10.0 mi Calm Calm - N/A   Clear
4:51 AM 66.0 °F - 59.0 °F 78% 29.99 in 10.0 mi Calm Calm - N/A   Clear
5:51 AM 66.9 °F - 57.9 °F 73% 29.99 in 10.0 mi Calm Calm - N/A   Clear
6:51 AM 66.0 °F - 57.9 °F 75% 30.01 in 9.0 mi Calm Calm - N/A   Clear
7:51 AM 69.1 °F - 61.0 °F 75% 30.03 in 10.0 mi Calm Calm - N/A   Clear
8:51 AM 75.0 °F - 60.1 °F 60% 30.04 in 10.0 mi Calm Calm - N/A   Clear
9:51 AM 81.0 °F 81.9 °F 62.1 °F 52% 30.05 in 10.0 mi Calm Calm - N/A   Clear
10:51 AM 86.0 °F 86.8 °F 63.0 °F 46% 30.05 in 10.0 mi Calm Calm - N/A   Clear
11:51 AM 90.0 °F 90.3 °F 62.1 °F 39% 30.04 in 10.0 mi SSE 8.1 mph - N/A   Clear
12:51 PM 91.0 °F 91.9 °F 63.0 °F 39% 30.03 in 10.0 mi South 5.8 mph - N/A   Clear
1:51 PM 91.9 °F 91.2 °F 59.0 °F 33% 30.01 in 10.0 mi Variable 5.8 mph - N/A   Clear
2:51 PM 93.9 °F 93.2 °F 59.0 °F 31% 29.98 in 10.0 mi SSW 9.2 mph - N/A   Clear
3:51 PM 93.9 °F 92.9 °F 57.9 °F 30% 29.95 in 10.0 mi South 8.1 mph - N/A   Clear
4:51 PM 93.9 °F 92.9 °F 57.9 °F 30% 29.93 in 10.0 mi SSW 8.1 mph - N/A   Clear
5:51 PM 93.9 °F 93.2 °F 59.0 °F 31% 29.91 in 10.0 mi South 6.9 mph - N/A   Clear
6:51 PM 91.9 °F 90.8 °F 57.9 °F 32% 29.91 in 10.0 mi SSE 5.8 mph - N/A   Clear
7:51 PM 88.0 °F 86.9 °F 57.9 °F 36% 29.91 in 10.0 mi ESE 6.9 mph - N/A   Clear
8:51 PM 84.0 °F 83.3 °F 57.0 °F 40% 29.92 in 10.0 mi ESE 4.6 mph - N/A   Clear
9:51 PM 81.0 °F 81.0 °F 57.0 °F 44% 29.94 in 10.0 mi ESE 5.8 mph - N/A   Clear
10:51 PM 79.0 °F - 55.9 °F 45% 29.95 in 10.0 mi ESE 6.9 mph - N/A   Clear
11:51 PM 80.1 °F 80.7 °F 59.0 °F 48% 29.95 in 10.0 mi SE 6.9 mph - N/A   Scattered Clouds